CEB987 RPMD-RPLL

Flight info

Callsign CEB987
Flight time N/A
Altitude 38000
Route ANKIN3R ANKIN B473 LAIYA LAIYA5R
Aircraft A20N/M-SDE2E3FGHIRWXY/LB1

Departure

Time 2026-04-29 12:29
Airport Francisco Bangoy International Airport (RPMD)

Arrival

Time N/A
Airport Ninoy Aquino International Airport (RPLL)
Time Latitude Longitude Altitude Speed Heading
2026-04-29 12:12 7.12950 125.64547 101 ft 0 kts 320°
2026-04-29 12:19 7.12947 125.64550 101 ft 2 kts 319°
2026-04-29 12:19 7.12934 125.64561 100 ft 2 kts 319°
2026-04-29 12:19 7.12922 125.64572 100 ft 2 kts 316°
2026-04-29 12:19 7.12910 125.64584 100 ft 2 kts 313°
2026-04-29 12:20 7.12899 125.64596 101 ft 2 kts 305°
2026-04-29 12:20 7.12891 125.64611 101 ft 2 kts 281°
2026-04-29 12:20 7.12893 125.64626 101 ft 2 kts 234°
2026-04-29 12:20 7.12896 125.64630 101 ft 0 kts 230°
2026-04-29 12:22 7.12888 125.64621 101 ft 5 kts 230°
2026-04-29 12:22 7.12849 125.64573 101 ft 13 kts 231°
2026-04-29 12:22 7.12804 125.64521 101 ft 17 kts 227°
2026-04-29 12:22 7.12739 125.64449 101 ft 6 kts 226°
2026-04-29 12:23 7.12689 125.64451 101 ft 10 kts 150°
2026-04-29 12:23 7.12631 125.64501 101 ft 0 kts 140°
2026-04-29 12:26 7.12369 125.64364 100 ft 23 kts 229°
2026-04-29 12:26 7.12257 125.64233 101 ft 27 kts 229°
2026-04-29 12:26 7.12126 125.64081 102 ft 30 kts 229°
2026-04-29 12:26 7.11978 125.63911 101 ft 34 kts 229°
2026-04-29 12:27 7.11816 125.63721 101 ft 36 kts 230°
2026-04-29 12:27 7.11753 125.63604 99 ft 18 kts 274°
2026-04-29 12:27 7.11720 125.63538 100 ft 3 kts 186°
2026-04-29 12:27 7.11692 125.63560 100 ft 8 kts 122°
2026-04-29 12:28 7.11701 125.63588 100 ft 5 kts 39°
2026-04-29 12:28 7.11720 125.63609 100 ft 2 kts 49°
2026-04-29 12:28 7.11758 125.63653 100 ft 30 kts 49°
2026-04-29 12:28 7.12114 125.64066 102 ft 122 kts 49°
2026-04-29 12:29 7.12805 125.64869 372 ft 161 kts 49°
2026-04-29 12:29 7.13515 125.65695 1408 ft 153 kts 49°
2026-04-29 12:29 7.14257 125.66468 2294 ft 159 kts 32°
2026-04-29 12:29 7.15375 125.66717 2952 ft 177 kts 354°
2026-04-29 12:30 7.16650 125.66463 3678 ft 197 kts 344°
2026-04-29 12:30 7.18053 125.66095 4441 ft 219 kts 345°
2026-04-29 12:30 7.19624 125.65755 5265 ft 243 kts 348°
2026-04-29 12:30 7.21337 125.65473 6346 ft 256 kts 351°
2026-04-29 12:31 7.23178 125.65222 7295 ft 277 kts 352°
2026-04-29 12:31 7.25113 125.64982 8636 ft 282 kts 352°
2026-04-29 12:31 7.27058 125.64747 9958 ft 288 kts 352°
2026-04-29 12:31 7.28295 125.64597 10692 ft 296 kts 352°
2026-04-29 12:32 7.30428 125.64335 11458 ft 322 kts 352°
2026-04-29 12:32 7.32736 125.64049 12171 ft 345 kts 352°
2026-04-29 12:32 7.35152 125.63748 13220 ft 352 kts 352°
2026-04-29 12:32 7.37600 125.63444 14342 ft 358 kts 352°
2026-04-29 12:33 7.40096 125.63133 15421 ft 364 kts 352°
2026-04-29 12:33 7.42640 125.62816 16463 ft 370 kts 352°
2026-04-29 12:33 7.45155 125.62221 17449 ft 375 kts 338°
2026-04-29 12:33 7.47415 125.60873 18402 ft 380 kts 319°
2026-04-29 12:34 7.49157 125.58973 19302 ft 385 kts 308°
2026-04-29 12:34 7.50818 125.56832 20203 ft 390 kts 307°
2026-04-29 12:34 7.52489 125.54649 21086 ft 396 kts 307°
2026-04-29 12:34 7.54167 125.52462 21924 ft 401 kts 307°
2026-04-29 12:35 7.55890 125.50228 22745 ft 406 kts 307°
2026-04-29 12:35 7.57642 125.47966 23537 ft 411 kts 307°
2026-04-29 12:35 7.59415 125.45681 24310 ft 416 kts 307°
2026-04-29 12:35 7.61213 125.43365 25058 ft 421 kts 307°
2026-04-29 12:36 7.63029 125.41026 25767 ft 426 kts 307°
2026-04-29 12:36 7.64865 125.38662 26440 ft 431 kts 307°
2026-04-29 12:36 7.66725 125.36265 27086 ft 435 kts 307°
2026-04-29 12:36 7.68598 125.33850 27707 ft 439 kts 307°
2026-04-29 12:37 7.70489 125.31413 28297 ft 444 kts 307°
2026-04-29 12:37 7.72404 125.28944 28853 ft 448 kts 307°
2026-04-29 12:37 7.74308 125.26489 29377 ft 451 kts 307°
2026-04-29 12:37 7.76252 125.23981 29890 ft 455 kts 307°
2026-04-29 12:38 7.78210 125.21454 30403 ft 459 kts 307°
2026-04-29 12:38 7.80183 125.18908 30906 ft 462 kts 307°
2026-04-29 12:38 7.82172 125.16341 31453 ft 465 kts 307°
2026-04-29 12:38 7.84161 125.13774 32092 ft 464 kts 307°
2026-04-29 12:39 7.86145 125.11213 32739 ft 462 kts 307°
2026-04-29 12:39 7.88126 125.08654 33366 ft 461 kts 307°
2026-04-29 12:39 7.90075 125.06137 33835 ft 459 kts 307°
2026-04-29 12:39 7.92035 125.03605 33980 ft 457 kts 307°
2026-04-29 12:40 7.94000 125.01089 34000 ft 457 kts 309°
2026-04-29 12:40 7.98525 124.96603 34000 ft 457 kts 321°
2026-04-29 12:41 8.03814 124.93023 34000 ft 458 kts 328°
2026-04-29 12:41 8.09227 124.89636 34000 ft 458 kts 328°
2026-04-29 12:42 8.14633 124.86245 33999 ft 457 kts 328°
2026-04-29 12:42 8.20045 124.82852 34000 ft 457 kts 328°
2026-04-29 12:43 8.25424 124.79482 34000 ft 457 kts 328°
2026-04-29 12:43 8.30832 124.76091 34000 ft 458 kts 328°
2026-04-29 12:44 8.36250 124.72692 34001 ft 458 kts 328°
2026-04-29 12:44 8.40748 124.69870 34000 ft 457 kts 328°
2026-04-29 12:45 8.47044 124.65919 34000 ft 458 kts 328°
2026-04-29 12:45 8.52455 124.62521 34000 ft 457 kts 328°
2026-04-29 12:46 8.56948 124.59699 34000 ft 457 kts 328°
2026-04-29 12:46 8.62358 124.56300 34000 ft 457 kts 328°
2026-04-29 12:47 8.67767 124.52901 34000 ft 457 kts 328°
2026-04-29 12:47 8.73174 124.49502 34000 ft 457 kts 328°
2026-04-29 12:48 8.78590 124.46096 34000 ft 457 kts 328°
2026-04-29 12:48 8.83960 124.42717 34000 ft 457 kts 328°
2026-04-29 12:49 8.89377 124.39308 34000 ft 457 kts 328°
2026-04-29 12:49 8.94791 124.35900 34000 ft 457 kts 328°
2026-04-29 12:50 9.00166 124.32515 34000 ft 457 kts 328°
2026-04-29 12:50 9.05573 124.29108 34001 ft 457 kts 328°
2026-04-29 12:51 9.10975 124.25704 34000 ft 457 kts 328°
2026-04-29 12:51 9.16382 124.22294 34001 ft 457 kts 328°
2026-04-29 12:52 9.21767 124.18898 34000 ft 457 kts 328°
2026-04-29 12:52 9.27176 124.15485 34000 ft 457 kts 328°
2026-04-29 12:53 9.32584 124.12072 34000 ft 457 kts 328°
2026-04-29 12:53 9.37994 124.08656 34000 ft 458 kts 328°
2026-04-29 12:54 9.43398 124.05243 34000 ft 458 kts 328°
2026-04-29 12:54 9.48771 124.01848 34000 ft 457 kts 328°
2026-04-29 12:55 9.54172 123.98434 33999 ft 457 kts 328°
2026-04-29 12:55 9.59575 123.95017 34000 ft 457 kts 328°
2026-04-29 12:56 9.64981 123.91597 34000 ft 457 kts 328°
2026-04-29 12:56 9.70382 123.88179 34000 ft 457 kts 328°
2026-04-29 12:57 9.75789 123.84756 34000 ft 457 kts 328°
2026-04-29 12:57 9.81154 123.81358 34000 ft 457 kts 327°
2026-04-29 12:58 9.86556 123.77935 34000 ft 457 kts 327°